Weather History for OTBD - October, 2012

Change the Weather History Date:

Wednesday, October 3, 2012

  Actual Average Record
Temperature  
Mean Temperature 93 °F -  
Max Temperature 102 °F 94 °F - ()
Min Temperature 84 °F 73 °F - ()
Cooling Degree Days 28    
Growing Degree Days 43 (Base 50)    
Moisture  
Dew Point 73 °F    
Average Humidity 55    
Maximum Humidity 79    
Minimum Humidity 21    
Precipitation  
Precipitation 0.00 in 0.00 in - ()
Sea Level Pressure  
Sea Level Pressure 29.83 in    
Wind  
Wind Speed 6 mph ()    
Max Wind Speed 14 mph    
Max Gust Speed -    
Visibility 5.6 miles    
Events      
T = Trace of Precipitation, MM = Missing Value Source: Averaged Metar Reports

Daily Weather History Graph

Daily Weather History Graph

Search for Another Location

Airport or City:

Trip Planner

Search our weather history database for the weather conditions in past years. The results will help you decide how hot, cold, wet, or windy it might be!

Date:

Astronomy

Oct. 03, 2012 Rise Set
Actual Time 5:26 AM AST 5:18 PM AST
Civil Twilight 5:03 AM AST 5:41 PM AST
Nautical Twilight 4:37 AM AST 6:07 PM AST
Astronomical Twilight 4:10 AM AST 6:34 PM AST
Moon 7:18 PM AST (10/3) 8:05 AM AST (10/3)
Length of Visible Light 12h 37m
Length of Day
11h 51m
Waning Gibbous, 90% of the Moon is Illuminated
Oct 3
Waning Gibbous
Oct 8
Last Quarter
Oct 15
New
Oct 22
First Quarter
Oct 29
Full

Hourly Weather History & Observations

Time (AST) Temp. Heat Index Dew Point Humidity Pressure Visibility Wind Dir Wind Speed Gust Speed Precip Events Conditions
12:00 AM 87.8 °F 97.6 °F 75.2 °F 66% 29.86 in - NNW 5.8 mph - N/A   Clear
12:30 AM 87.8 °F 95.6 °F 73.4 °F 62% 29.86 in 5.6 mi NNW 3.5 mph - N/A   Unknown
1:00 AM 86.0 °F 95.1 °F 75.2 °F 70% 29.83 in 5.6 mi NNW 3.5 mph - N/A   Unknown
1:30 AM 86.0 °F 93.4 °F 73.4 °F 66% 29.83 in - NNW 4.6 mph - N/A   Clear
2:00 AM 87.8 °F 95.6 °F 73.4 °F 62% 29.83 in - NW 4.6 mph - N/A   Clear
2:30 AM 87.8 °F 92.6 °F 69.8 °F 55% 29.83 in - NW 4.6 mph - N/A   Clear
3:00 AM 87 °F - 68 °F 43% 29.84 in 6 mi NNW 6.9 mph - -  
3:00 AM 87.8 °F 91.4 °F 68.0 °F 52% 29.83 in - NNW 6.9 mph - N/A   Clear
3:30 AM 86.0 °F 88.2 °F 66.2 °F 51% 29.83 in - NNW 4.6 mph - N/A   Clear
4:00 AM 86.0 °F 87.3 °F 64.4 °F 48% 29.83 in - Variable 2.3 mph - N/A   Clear
4:30 AM 86.0 °F 89.4 °F 68.0 °F 55% 29.83 in - NW 4.6 mph - N/A   Clear
5:00 AM 86.0 °F 89.4 °F 68.0 °F 55% 29.83 in - NW 3.5 mph - N/A   Clear
5:30 AM 84.2 °F 89.6 °F 71.6 °F 66% 29.86 in 5.0 mi Variable 2.3 mph - N/A   Unknown
6:00 AM 86.0 °F 93.4 °F 73.4 °F 66% 29.86 in 5.0 mi WSW 3.5 mph - N/A   Unknown
6:30 AM 86.0 °F 95.1 °F 75.2 °F 70% 29.86 in 5.0 mi WSW 4.6 mph - N/A   Unknown
7:00 AM 87.8 °F 95.6 °F 73.4 °F 62% 29.86 in 5.0 mi West 3.5 mph - N/A   Unknown
7:30 AM 91.4 °F 98.4 °F 71.6 °F 52% 29.86 in 5.0 mi West 3.5 mph - N/A   Unknown
8:00 AM 93.2 °F 97.7 °F 68.0 °F 44% 29.86 in 5.6 mi West 3.5 mph - N/A   Unknown
8:30 AM 96.8 °F 97.1 °F 60.8 °F 30% 29.86 in 5.6 mi NW 4.6 mph - N/A   Unknown
9:00 AM 97 °F - 61 °F 21% 29.89 in 6 mi NNW 6.9 mph - -  
9:00 AM 96.8 °F 97.1 °F 60.8 °F 30% 29.89 in - NNW 6.9 mph - N/A   Clear
9:30 AM 98.6 °F 99.4 °F 60.8 °F 29% 29.89 in - NNW 9.2 mph - N/A   Clear
10:00 AM 98.6 °F 99.4 °F 60.8 °F 29% 29.86 in - NNW 8.1 mph - N/A   Clear
10:30 AM 100.4 °F 103.6 °F 64.4 °F 31% 29.86 in - NNW 8.1 mph - N/A   Clear
11:00 AM 98.6 °F 107.7 °F 71.6 °F 42% 29.86 in 5.6 mi North 9.2 mph - N/A   Unknown
11:30 AM 98.6 °F 107.7 °F 71.6 °F 42% 29.83 in 5.6 mi North 8.1 mph - N/A   Unknown
12:00 PM 100.4 °F 104.9 °F 66.2 °F 33% 29.83 in - North 9.2 mph - N/A   Clear
12:30 PM 102.2 °F 104.2 °F 62.6 °F 27% 29.83 in - NNE 10.4 mph - N/A   Clear
1:00 PM 102.2 °F 102.4 °F 59.0 °F 24% 29.80 in 6.2 mi NNE 11.5 mph - N/A   Partly Cloudy
1:30 PM 96.8 °F 112.2 °F 77.0 °F 53% 29.80 in 5.0 mi NE 12.7 mph - N/A   Partly Cloudy
2:00 PM 95.0 °F 109.7 °F 77.0 °F 56% 29.80 in 5.6 mi NE 13.8 mph - N/A   Partly Cloudy
2:30 PM 95.0 °F 107.4 °F 75.2 °F 53% 29.80 in 6.2 mi NE 13.8 mph - N/A   Partly Cloudy
3:00 PM 95 °F - 75 °F 43% 29.80 in 6 mi NNE 12.7 mph - -   Scattered Clouds
3:00 PM 95.0 °F 107.4 °F 75.2 °F 53% 29.77 in 6.2 mi NNE 12.7 mph - N/A   Partly Cloudy
3:30 PM 95.0 °F 109.7 °F 77.0 °F 56% 29.80 in 6.2 mi NNE 12.7 mph - N/A   Partly Cloudy
4:00 PM 93.2 °F 107.2 °F 77.0 °F 59% 29.80 in - NNE 12.7 mph - N/A   Clear
4:30 PM 93.2 °F 110.2 °F 78.8 °F 63% 29.80 in - NNE 11.5 mph - N/A   Clear
5:00 PM 91.4 °F 105.1 °F 77.0 °F 63% 29.80 in - NNE 10.4 mph - N/A   Clear
5:30 PM 91.4 °F 107.2 °F 78.8 °F 66% 29.80 in - North 10.4 mph - N/A   Clear
6:00 PM 91.4 °F 107.2 °F 78.8 °F 66% 29.80 in - North 10.4 mph - N/A   Clear
6:30 PM 91.4 °F 107.2 °F 78.8 °F 66% 29.80 in - North 10.4 mph - N/A   Clear
7:00 PM 89.6 °F 104.7 °F 78.8 °F 70% 29.80 in - North 9.2 mph - N/A   Clear
7:30 PM 89.6 °F 104.7 °F 78.8 °F 70% 29.80 in - North 8.1 mph - N/A   Clear
8:00 PM 89.6 °F 104.7 °F 78.8 °F 70% 29.80 in - North 8.1 mph - N/A   Clear
8:30 PM 89.6 °F 104.7 °F 78.8 °F 70% 29.83 in - North 6.9 mph - N/A   Clear
9:00 PM 89 °F - 79 °F 65% 29.83 in 6 mi North 5.8 mph - -  
9:00 PM 89.6 °F 104.7 °F 78.8 °F 70% 29.83 in - North 5.8 mph - N/A   Clear
9:30 PM 89.6 °F 104.7 °F 78.8 °F 70% 29.80 in - North 5.8 mph - N/A   Clear
10:00 PM 87.8 °F 102.5 °F 78.8 °F 75% 29.80 in - North 5.8 mph - N/A   Clear
10:30 PM 87.8 °F 104.9 °F 80.6 °F 79% 29.80 in - North 3.5 mph - N/A   Clear
11:00 PM 87.8 °F 104.9 °F 80.6 °F 79% 29.80 in 5.6 mi NNE 3.5 mph - N/A   Unknown
11:30 PM 87.8 °F 104.9 °F 80.6 °F 79% 29.80 in 5.0 mi North 4.6 mph - N/A   Unknown